Time,TemperatureF,DewpointF,PressureIn,WindDirection,WindDirectionDegrees,WindSpeedMPH,WindSpeedGustMPH,Humidity,HourlyPrecipIn,Conditions,Clouds,dailyrainin,SolarRadiationWatts/m^2,SoftwareType,DateUTC
2013-07-08 00:00:00,71.0,65.0,-100.00,SW,225,2.0,-999.0,82,-99.99,,,-99.99,0.000000,,2013-07-08 04:00:00,
2013-07-08 00:42:00,71.0,65.0,-100.00,SW,225,2.0,-999.0,82,-99.99,,,-99.99,0.000000,,2013-07-08 04:42:00,
2013-07-08 00:53:00,71.0,65.0,-100.00,SW,225,2.0,-999.0,82,-99.99,,,-99.99,0.000000,,2013-07-08 04:53:00,
2013-07-08 01:00:00,70.0,62.0,-100.00,SW,225,4.0,-999.0,77,-99.99,,,-99.99,0.000000,,2013-07-08 05:00:00,
2013-07-08 01:43:00,70.0,62.0,-100.00,SW,225,4.0,-999.0,77,-99.99,,,-99.99,0.000000,,2013-07-08 05:43:00,
2013-07-08 01:53:00,70.0,62.0,-100.00,SW,225,4.0,-999.0,77,-99.99,,,-99.99,0.000000,,2013-07-08 05:53:00,
2013-07-08 02:00:00,68.0,62.0,-100.00,SW,225,3.0,-999.0,81,-99.99,,,-99.99,0.000000,,2013-07-08 06:00:00,
2013-07-08 02:43:00,68.0,62.0,-100.00,SW,225,3.0,-999.0,81,-99.99,,,-99.99,0.000000,,2013-07-08 06:43:00,
2013-07-08 02:53:00,68.0,62.0,-100.00,SW,225,3.0,-999.0,81,-99.99,,,-99.99,0.000000,,2013-07-08 06:53:00,
2013-07-08 03:00:00,67.0,63.0,-100.00,SW,225,2.0,-999.0,85,-99.99,,,-99.99,0.000000,,2013-07-08 07:00:00,
2013-07-08 03:44:00,67.0,63.0,-100.00,SW,225,2.0,-999.0,85,-99.99,,,-99.99,0.000000,,2013-07-08 07:44:00,
2013-07-08 03:53:00,67.0,63.0,-100.00,SW,225,2.0,-999.0,85,-99.99,,,-99.99,0.000000,,2013-07-08 07:53:00,
2013-07-08 04:00:00,68.0,63.0,-100.00,SW,225,3.0,-999.0,85,-99.99,,,-99.99,0.000000,,2013-07-08 08:00:00,
2013-07-08 04:42:00,68.0,63.0,-100.00,SW,225,3.0,-999.0,85,-99.99,,,-99.99,0.000000,,2013-07-08 08:42:00,
2013-07-08 04:53:00,68.0,63.0,-100.00,SW,225,3.0,-999.0,85,-99.99,,,-99.99,0.000000,,2013-07-08 08:53:00,
2013-07-08 05:00:00,67.0,63.0,-100.00,SW,225,1.0,-999.0,86,-99.99,,,-99.99,0.000000,,2013-07-08 09:00:00,
2013-07-08 05:43:00,67.0,63.0,-100.00,SW,225,1.0,-999.0,86,-99.99,,,-99.99,0.000000,,2013-07-08 09:43:00,
2013-07-08 05:53:00,67.0,63.0,-100.00,SW,225,1.0,-999.0,86,-99.99,,,-99.99,0.000000,,2013-07-08 09:53:00,
2013-07-08 06:00:00,67.0,63.0,-100.00,SW,225,1.0,-999.0,88,-99.99,,,-99.99,0.000000,,2013-07-08 10:00:00,
2013-07-08 06:43:00,67.0,63.0,-100.00,SW,225,1.0,-999.0,88,-99.99,,,-99.99,0.000000,,2013-07-08 10:43:00,
2013-07-08 06:53:00,67.0,63.0,-100.00,SW,225,1.0,-999.0,88,-99.99,,,-99.99,0.000000,,2013-07-08 10:53:00,
2013-07-08 07:00:00,67.0,64.0,-100.00,SW,225,0.0,-999.0,89,-99.99,,,-99.99,16.240000,,2013-07-08 11:00:00,
2013-07-08 07:33:00,67.0,64.0,-100.00,SW,225,0.0,-999.0,89,-99.99,,,-99.99,16.240000,,2013-07-08 11:33:00,
2013-07-08 07:43:00,67.0,64.0,-100.00,SW,225,0.0,-999.0,89,-99.99,,,-99.99,16.240000,,2013-07-08 11:43:00,
2013-07-08 07:53:00,67.0,64.0,-100.00,SW,225,0.0,-999.0,89,-99.99,,,-99.99,16.240000,,2013-07-08 11:53:00,
2013-07-08 08:00:00,68.0,65.0,-100.00,SW,225,2.0,-999.0,88,-99.99,,,-99.99,81.199997,,2013-07-08 12:00:00,
2013-07-08 08:43:00,68.0,65.0,-100.00,SW,225,2.0,-999.0,88,-99.99,,,-99.99,81.199997,,2013-07-08 12:43:00,
2013-07-08 08:53:00,68.0,65.0,-100.00,SW,225,2.0,-999.0,88,-99.99,,,-99.99,81.199997,,2013-07-08 12:53:00,
2013-07-08 09:00:00,71.0,65.0,-100.00,SW,225,0.0,-999.0,81,-99.99,,,-99.99,121.800003,,2013-07-08 13:00:00,
2013-07-08 09:43:00,71.0,65.0,-100.00,SW,225,0.0,-999.0,81,-99.99,,,-99.99,121.800003,,2013-07-08 13:43:00,
2013-07-08 09:53:00,71.0,65.0,-100.00,SW,225,0.0,-999.0,81,-99.99,,,-99.99,121.800003,,2013-07-08 13:53:00,
2013-07-08 10:00:00,73.0,65.0,-100.00,SSW,202,0.0,-999.0,75,-99.99,,,-99.99,177.479996,,2013-07-08 14:00:00,
2013-07-08 10:43:00,73.0,65.0,-100.00,SSW,202,0.0,-999.0,75,-99.99,,,-99.99,177.479996,,2013-07-08 14:43:00,
2013-07-08 10:53:00,73.0,65.0,-100.00,SSW,202,0.0,-999.0,75,-99.99,,,-99.99,177.479996,,2013-07-08 14:53:00,
2013-07-08 11:00:00,75.0,66.0,-100.00,SSW,202,2.0,-999.0,73,-99.99,,,-99.99,388.600006,,2013-07-08 15:00:00,
2013-07-08 11:43:00,75.0,66.0,-100.00,SSW,202,2.0,-999.0,73,-99.99,,,-99.99,388.600006,,2013-07-08 15:43:00,
2013-07-08 11:53:00,75.0,66.0,-100.00,SSW,202,2.0,-999.0,73,-99.99,,,-99.99,388.600006,,2013-07-08 15:53:00,
2013-07-08 12:00:00,79.0,69.0,-100.00,SSW,202,1.0,-999.0,71,-99.99,,,-99.99,518.520020,,2013-07-08 16:00:00,
2013-07-08 12:43:00,79.0,69.0,-100.00,SSW,202,1.0,-999.0,71,-99.99,,,-99.99,518.520020,,2013-07-08 16:43:00,
2013-07-08 13:00:00,81.0,70.0,-100.00,SSW,202,2.0,-999.0,70,-99.99,,,-99.99,515.039978,,2013-07-08 17:00:00,
2013-07-08 13:55:00,81.0,70.0,-100.00,SSW,202,2.0,-999.0,70,-99.99,,,-99.99,515.039978,,2013-07-08 17:55:00,
2013-07-08 14:56:00,81.0,70.0,-100.00,SSW,202,4.0,-999.0,70,-99.99,,,-99.99,462.839996,,2013-07-08 18:56:00,
2013-07-08 15:58:00,74.0,68.0,-100.00,SW,225,4.0,-999.0,80,0.20,,,-99.99,139.199997,,2013-07-08 19:58:00,
2013-07-08 16:00:00,73.0,69.0,-100.00,SW,225,1.0,-999.0,87,0.13,,,-99.99,219.240005,,2013-07-08 20:00:00,
2013-07-08 16:57:00,73.0,69.0,-100.00,SW,225,1.0,-999.0,87,0.13,,,-99.99,219.240005,,2013-07-08 20:57:00,
2013-07-08 17:00:00,72.0,68.0,-100.00,SSE,157,2.0,-999.0,88,0.08,,,-99.99,80.040001,,2013-07-08 21:00:00,
2013-07-08 17:58:00,72.0,68.0,-100.00,SSE,157,2.0,-999.0,88,0.08,,,-99.99,80.040001,,2013-07-08 21:58:00,
2013-07-08 18:00:00,72.0,69.0,-100.00,ESE,112,0.0,-999.0,91,-99.99,,,-99.99,59.160000,,2013-07-08 22:00:00,
2013-07-08 19:00:00,72.0,69.0,-100.00,East,90,1.0,-999.0,91,-99.99,,,-99.99,51.040001,,2013-07-08 23:00:00,
2013-07-08 20:00:00,70.0,68.0,-100.00,ESE,112,0.0,-999.0,91,-99.99,,,-99.99,13.920000,,2013-07-09 00:00:00,
2013-07-08 21:00:00,70.0,68.0,-100.00,South,180,0.0,-999.0,92,0.01,,,-99.99,9.280000,,2013-07-09 01:00:00,
2013-07-08 21:47:00,70.0,68.0,-100.00,South,180,0.0,-999.0,92,0.01,,,-99.99,9.280000,,2013-07-09 01:47:00,
2013-07-08 22:00:00,71.0,69.0,-100.00,ESE,112,0.0,-999.0,93,-99.99,,,-99.99,0.000000,,2013-07-09 02:00:00,
2013-07-08 22:50:00,71.0,69.0,-100.00,ESE,112,0.0,-999.0,93,-99.99,,,-99.99,0.000000,,2013-07-09 02:50:00,
2013-07-08 23:00:00,70.0,68.0,-100.00,ESE,112,0.0,-999.0,93,0.01,,,-99.99,0.000000,,2013-07-09 03:00:00,